This is the latest recevied weather packets stored in our database for station/object PA2JOK. If no packets are shown the sender has not sent any weather packets the latest 1 day(s).
| Time | Temp. | Humidity | Pressure | Rain* | Wind** | Luminosity | Snow |
|---|---|---|---|---|---|---|---|
| 1778010482 | 10.56° C | 69% | 1010.1 hPa | 0 mm | 0 m/s | - | - |
| 1778009583 | 10.56° C | 71% | 1009.9 hPa | 0 mm | 0.89 m/s, 14° | - | - |
| 1778008682 | 11.11° C | 70% | 1009.8 hPa | 0 mm | 0.89 m/s, 35° | - | - |
| 1778007784 | 11.11° C | 70% | 1009.6 hPa | 0 mm | 0.89 m/s, 40° | - | - |
| 1778006882 | 11.67° C | 69% | 1009.4 hPa | 0 mm | 0.89 m/s, 347° | - | - |
| 1778005982 | 11.67° C | 68% | 1009.5 hPa | 0 mm | 0.89 m/s, 33° | - | - |
| 1778005083 | 11.67° C | 67% | 1009.3 hPa | 0 mm | 1.79 m/s, 3° | - | - |
| 1778004183 | 11.67° C | 66% | 1009.3 hPa | 0 mm | 0 m/s | - | - |
| 1778003282 | 12.22° C | 66% | 1009.4 hPa | 0 mm | 2.68 m/s, 53° | - | - |
| 1778002382 | 12.78° C | 65% | 1009.2 hPa | 0 mm | 1.79 m/s, 28° | - | - |
| 1778001482 | 12.78° C | 64% | 1009.2 hPa | 0 mm | 1.79 m/s, 1° | - | - |
| 1778000583 | 13.33° C | 63% | 1009.2 hPa | 0 mm | 3.58 m/s, 10° | - | - |
| 1777999683 | 13.33° C | 63% | 1009.5 hPa | 0 mm | 0.89 m/s, 38° | - | - |
| 1777998783 | 13.33° C | 63% | 1009.4 hPa | 0 mm | 3.58 m/s, 18° | - | - |
| 1777997883 | 13.33° C | 63% | 1009.5 hPa | 0 mm | 0.89 m/s, 29° | - | - |
| 1777996983 | 13.33° C | 65% | 1009.6 hPa | 0 mm | 4.47 m/s, 11° | - | - |
| 1777996082 | 13.33° C | 67% | 1009.8 hPa | 0 mm | 0 m/s | - | - |
| 1777995182 | 12.78° C | 68% | 1009.7 hPa | 0 mm | 0.89 m/s, 91° | - | - |
| 1777994283 | 12.78° C | 69% | 1009.9 hPa | 0 mm | 1.79 m/s, 72° | - | - |
| 1777993383 | 12.22° C | 70% | 1009.9 hPa | 0 mm | 0.89 m/s, 92° | - | - |
| 1777992482 | 12.22° C | 71% | 1009.9 hPa | 0 mm | 0.89 m/s, 48° | - | - |
| 1777991583 | 12.22° C | 72% | 1010.1 hPa | 0 mm | 0 m/s | - | - |
| 1777990683 | 11.67° C | 73% | 1010.1 hPa | 0 mm | 0.89 m/s, 132° | - | - |
| 1777989783 | 11.67° C | 73% | 1010.2 hPa | 0 mm | 1.79 m/s, 118° | - | - |
| 1777988884 | 11.67° C | 74% | 1010.3 hPa | 0 mm | 1.79 m/s, 209° | - | - |
* Rain latest hour (hover to see other rain measurements)
** Current wind speed in m/s (hover to see current wind gust speed)